Regional Weather Roundup
Issued by NWS

Home | Current Version | Previous Version | Text Only | Print | Product List | Glossary Off
Versions: 1 2 3 4 5 6 7 8 9 10 11 12 13 14 15 16 17 18 19 20 21 22 23 24 25 26 27 28 29 30 31 32 33 34 35 36 37 38 39 40 41 42 43 44 45 46 47 48 49 50

030
ASUS43 KDTX 241001
RWRMI
MICHIGAN HOURLY REGIONAL WEATHER ROUNDUP
NATIONAL WEATHER SERVICE DETROIT/PONTIAC MI
600 AM EDT SAT SEP 24 2016

NOTE: "FAIR" INDICATES FEW OR NO CLOUDS BELOW 12,000 FEET WITH NO
SIGNIFICANT WEATHER AND/OR OBSTRUCTION TO VISIBILITY.

MIZ047>049-052>055-059>063-066>070-074>076-081>083-241100-
SOUTHEAST LOWER MICHIGAN

CITY           SKY/WX    TMP DP  RH WIND       PRES   REMARKS
ADRIAN         CLOUDY    61  57  87 E8        30.19R
ALMA           CLOUDY    50  49  98 N12       30.25R
ANN ARBOR      CLEAR     56  54  93 N6        30.20R
BAD AXE        CLOUDY    48  47  98 CALM      30.26R
CARO           CLEAR     47  46  95 CALM      30.25R
DETROIT CITY   CLEAR     57  52  83 N6        30.20R
DETROIT        PTCLDY    58  52  80 N6        30.20R
FLINT          CLOUDY    55  50  83 NE6       30.23R
GROSSE ILE     CLEAR     60  54  79 NE8       30.18R
HILLSDALE      CLOUDY    59  54  82 CALM      30.18R
HOWELL         CLOUDY    56  53  90 CALM      30.22R

CITY           SKY/WX    TMP DP  RH WIND       PRES   REMARKS
JACKSON        MOCLDY    55  53  93 NE6       30.20R
LAMBERTVILLE   CLOUDY    62  55  77 N3        30.18R
LANSING        MOCLDY    53  48  83 NE5       30.23R
LAPEER         FAIR      51  49  93 NE3       30.23R
MASON          CLEAR     54  51  91 NE3       30.22R
MONROE         CLOUDY    60  55  83 NW6       30.18R
MT. CLEMENS    CLEAR     55  50  82 NE10      30.19R
PONTIAC        PTCLDY    57  51  80 NE3       30.21R
PORT HOPE        N/A     60  47  61 E13       30.24R
PORT HURON     CLEAR     52  48  87 NE3       30.23R
TRI CITIES     CLEAR     48  47  96 N5        30.25R
MIDLAND        FAIR      48  47  95 CALM      30.24S
TROY           CLEAR     58  51  75 NE3       30.23R
SAGINAW HB     CLEAR     50  46  87 NE6       30.24S
$$
MIZ043>046-050>051-056>058-064>065-071>073-077>080-241100-
SOUTHWEST LOWER MICHIGAN

CITY           SKY/WX    TMP DP  RH WIND       PRES   REMARKS
BATTLE CREEK   CLOUDY    56  53  90 NE6       30.20R
BENTON HARBOR  CLEAR     59  53  80 E7        30.17R
BIG RAPIDS     CLOUDY    50  48  93 CALM      30.25R
COLDWATER      CLOUDY    60  55  86 NE6       30.18R
FREMONT        FAIR      52  49  89 E7        30.23S
HOLLAND        CLEAR     55  50  83 NE5       30.21R
GRAND RAPIDS   CLEAR     53  49  86 NE8       30.22R
IONIA          FAIR      51  48  91 NE7       30.22S
KALAMAZOO      PTCLDY    55  51  86 NE5       30.20R
LUDINGTON      CLOUDY    50  49  98 E3        30.25R
MARSHALL       CLOUDY    55  54  94 NE3       30.20R
MUSKEGON       CLEAR     54  50  86 NE7       30.23R
SOUTH HAVEN    CLEAR     57  54  91 E5        30.19R
$$
MIZ016>042-241100-
NORTHERN LOWER MICHIGAN

CITY           SKY/WX    TMP DP  RH WIND       PRES   REMARKS
ALPENA         PTCLDY    41  38  89 CALM      30.28R
BEAVER ISLAND  MOCLDY    47  47 100 CALM      30.29R
BELLAIRE       CLOUDY    43  42  96 CALM      30.29R FOG
CADILLAC       CLOUDY    47  45  94 CALM      30.26R
CHARLEVOIX     PTCLDY    49  48  95 SE3       30.32R
FRANKFORT      CLOUDY    54  47  79 E5        30.26S
GAYLORD        PTCLDY    43  39  86 CALM      30.28R
GRAYLING       FOG       39  37  93 CALM      30.29R VSB 1/2
HARBOR SPRINGS PTCLDY    44  44  98 CALM      30.29R
HOUGHTON LAKE  CLEAR     42  40  92 CALM      30.28R
MANISTEE       CLOUDY    49  48  97 CALM      30.26R
OSCODA         PTCLDY    56  45  66 E9        30.25S
PELLSTON       PTCLDY    40  38  93 CALM      30.30R
ROGERS CITY    CLEAR     42  40  92 CALM      30.29R
TRAVERSE CITY  CLOUDY    49  46  90 CALM      30.27R
$$
MIZ007>008-015-241100-
EASTERN UPPER MICHIGAN

CITY           SKY/WX    TMP DP  RH WIND       PRES   REMARKS
KINROSS        CLEAR     46  45  96 CALM      30.30R
MACKINAC ISLAN CLEAR     50  50 100 SE5       30.29R
NEWBERRY       CLOUDY    42  41  97 CALM      30.29R
S. S. MARIE    CLEAR     46  43  89 NE3       30.30R
MUNISING         N/A     46  44  93 CALM      30.28R
$$
MIZ004>006-011>014-085-241100-
CENTRAL UPPER MICHIGAN

CITY           SKY/WX    TMP DP  RH WIND       PRES   REMARKS
MANISTIQUE     MOCLDY    45  43  92 CALM      30.27S
ESCANABA       PTCLDY    47  47 100 CALM      30.27R
MENOMINEE      CLOUDY    61  53  75 SE10      30.26R
SAWYER-GWINN   PTCLDY    41  37  86 CALM      30.28R
$$
MIZ001>003-009>011-084-241100-
WESTERN UPPER MICHIGAN

CITY           SKY/WX    TMP DP  RH WIND       PRES   REMARKS
IRON MOUNTAIN  CLOUDY    51  47  86 CALM      30.25R
HOUGHTON       PTCLDY    53  45  74 E5        30.27R
COPPER HARBOR    N/A     49  47  93 CALM      30.28R
IRONWOOD       CLOUDY    55  50  83 E6        30.24R
$$

ABBREVIATIONS USED IN REMARKS
   TC - TEMPERATURE IN CELSIUS
  WCI - WIND CHILL INDEX
   HX - HEAT INDEX
  VSB - VISIBILITY





USA.gov is the U.S. government's official web portal to all federal, state and local government web resources and services.